| time (UTC) | temp F | wind direction | speed MPH | gust MPH | rain 1hr in | rain 24hr in | rain mn in | humidity % | barometer mb |
| 20260904190016 | 68 | 140 | 2.0 | 7.0 | 0.00 | 1.12 | 1.12 | 94 | 1015.1 |
| 20260904184517 | 68 | 124 | 2.0 | 9.0 | 0.00 | 1.12 | 1.12 | 96 | 1015.0 |
| 20260904183015 | 68 | 88 | 0.0 | 1.0 | 0.00 | 1.12 | 1.12 | 96 | 1014.8 |
| 20260904181515 | 68 | 355 | 1.0 | 3.0 | 0.00 | 1.12 | 1.12 | 96 | 1014.8 |
| 20260904180015 | 69 | 346 | 1.0 | 3.0 | 0.00 | 1.12 | 1.12 | 95 | 1014.6 |
| 20260904174516 | 69 | 10 | 0.0 | 4.0 | 0.00 | 1.12 | 1.12 | 94 | 1014.6 |
| 20260904173016 | 70 | 152 | 0.0 | 2.0 | 0.00 | 1.12 | 1.12 | 97 | 1014.5 |
| 20260904171510 | 69 | 355 | 0.0 | 2.0 | 0.00 | 1.12 | 1.12 | 98 | 1014.5 |
| 20260904170006 | 67 | 5 | 0.0 | 2.0 | 0.00 | 1.12 | 1.12 | 98 | 1014.6 |
| 20260904164505 | 67 | 21 | 0.0 | 4.0 | 0.00 | 1.12 | 1.12 | 97 | 1014.8 |
| 20260904163014 | 66 | 355 | 0.0 | 4.0 | 0.00 | 1.12 | 1.12 | 97 | 1014.7 |
| 20260904161503 | 67 | 351 | 0.0 | 3.0 | 0.00 | 1.12 | 1.12 | 97 | 1014.8 |
| 20260904160002 | 67 | 9 | 0.0 | 2.0 | 0.00 | 1.12 | 1.12 | 97 | 1014.9 |
| 20260904154501 | 67 | 355 | 0.0 | 3.0 | 0.00 | 1.12 | 1.12 | 98 | 1014.8 |
| 20260904153101 | 66 | 13 | 0.0 | 4.0 | 0.00 | 1.12 | 1.12 | 99 | 1014.7 |
| 20260904151559 | 65 | 5 | 0.0 | 2.0 | 0.00 | 1.12 | 1.12 | 99 | 1014.8 |
| 20260904150057 | 65 | 344 | 1.0 | 4.0 | 0.00 | 1.12 | 1.12 | 99 | 1014.8 |
| 20260904144557 | 66 | 23 | 0.0 | 3.0 | 0.00 | 1.12 | 1.12 | 100 | 1014.8 |
| 20260904143054 | 65 | 22 | 0.0 | 3.0 | 0.00 | 1.12 | 1.12 | 100 | 1014.9 |
| 20260904141557 | 65 | 355 | 0.0 | 3.0 | 0.00 | 1.12 | 1.12 | 100 | 1014.8 |
| 20260904140105 | 64 | 9 | 0.0 | 3.0 | 0.00 | 1.12 | 1.12 | 100 | 1014.7 |
| 20260904134610 | 64 | 355 | 0.0 | 2.0 | 0.00 | 1.12 | 1.12 | 100 | 1014.6 |
| 20260904133054 | 63 | 355 | 0.0 | 0.0 | 0.00 | 1.12 | 1.12 | 100 | 1014.5 |
| 20260904131550 | 63 | 355 | 0.0 | 0.0 | 0.00 | 1.12 | 1.12 | 100 | 1014.4 |
| 20260904130047 | 63 | 355 | 0.0 | 0.0 | 0.01 | 1.12 | 1.12 | 100 | 1014.5 |
| 20260904124550 | 62 | 355 | 0.0 | 0.0 | 0.07 | 1.12 | 1.12 | 100 | 1014.3 |
| 20260904123054 | 62 | 355 | 0.0 | 0.0 | 0.10 | 1.12 | 1.12 | 100 | 1014.1 |
| 20260904121552 | 62 | 355 | 0.0 | 2.0 | 0.10 | 1.12 | 1.12 | 100 | 1013.4 |
| 20260904120045 | 62 | 355 | 0.0 | 0.0 | 0.09 | 1.11 | 1.11 | 100 | 1013.8 |
| 20260904114549 | 62 | 325 | 0.0 | 0.0 | 0.07 | 1.05 | 1.05 | 100 | 1014.4 |
| 20260904113045 | 61 | 253 | 0.0 | 0.0 | 0.24 | 1.02 | 1.02 | 100 | 1014.5 |
| 20260904111546 | 61 | 355 | 0.0 | 2.0 | 0.24 | 1.02 | 1.02 | 99 | 1014.1 |
| 20260904110041 | 61 | 355 | 0.0 | 3.0 | 0.24 | 1.02 | 1.02 | 99 | 1013.6 |
| 20260904104538 | 61 | 220 | 3.0 | 8.0 | 0.20 | 0.98 | 0.98 | 99 | 1013.0 |
| 20260904103036 | 61 | 345 | 0.0 | 0.0 | 0.00 | 0.78 | 0.78 | 99 | 1013.9 |
| 20260904101537 | 61 | 261 | 0.0 | 1.0 | 0.00 | 0.78 | 0.78 | 99 | 1013.4 |
| 20260904100030 | 61 | 186 | 0.0 | 1.0 | 0.00 | 0.78 | 0.78 | 99 | 1013.3 |
| 20260904094542 | 61 | 355 | 0.0 | 0.0 | 0.00 | 0.78 | 0.78 | 99 | 1013.8 |
| 20260904093028 | 61 | 355 | 0.0 | 0.0 | 0.00 | 0.78 | 0.78 | 99 | 1013.8 |
| 20260904091528 | 61 | 355 | 0.0 | 0.0 | 0.00 | 0.78 | 0.78 | 99 | 1014.2 |
| 20260904090042 | 61 | 350 | 0.0 | 0.0 | 0.00 | 0.78 | 0.78 | 99 | 1013.6 |
| 20260904084528 | 61 | 284 | 0.0 | 2.0 | 0.00 | 0.78 | 0.78 | 99 | 1014.2 |
| 20260904083049 | 61 | 284 | 0.0 | 0.0 | 0.01 | 0.78 | 0.78 | 99 | 1013.5 |
| 20260904081530 | 61 | 284 | 0.0 | 0.0 | 0.01 | 0.78 | 0.78 | 99 | 1014.0 |
| 20260904080020 | 61 | 284 | 0.0 | 4.0 | 0.02 | 0.78 | 0.78 | 98 | 1014.5 |
| 20260904074519 | 61 | 20 | 0.0 | 1.0 | 0.23 | 0.78 | 0.78 | 98 | 1014.2 |
| 20260904073018 | 61 | 5 | 0.0 | 2.0 | 0.27 | 0.77 | 0.77 | 98 | 1014.5 |
| 20260904071517 | 61 | 350 | 0.0 | 2.0 | 0.28 | 0.77 | 0.77 | 98 | 1015.4 |
| 20260904070015 | 62 | 26 | 0.0 | 4.0 | 0.28 | 0.76 | 0.76 | 98 | 1015.2 |
| 20260904064515 | 62 | 54 | 0.0 | 4.0 | 0.10 | 0.55 | 0.55 | 98 | 1016.3 |
| 20260904063013 | 62 | 355 | 1.0 | 4.0 | 0.11 | 0.50 | 0.50 | 97 | 1015.2 |
| 20260904061519 | 61 | 12 | 1.0 | 5.0 | 0.36 | 0.49 | 0.49 | 97 | 1014.7 |
| 20260904060015 | 62 | 355 | 0.0 | 2.0 | 0.45 | 0.47 | 0.47 | 96 | 1014.7 |
| 20260904054510 | 62 | 28 | 0.0 | 1.0 | 0.45 | 0.45 | 0.45 | 96 | 1014.7 |
| 20260904053014 | 63 | 142 | 0.0 | 5.0 | 0.38 | 0.38 | 0.38 | 95 | 1014.9 |
| 20260904051503 | 64 | 248 | 0.0 | 1.0 | 0.12 | 0.12 | 0.12 | 92 | 1015.0 |
| 20260904050059 | 64 | 349 | 0.0 | 0.0 | 0.02 | 0.02 | 0.02 | 89 | 1014.7 |
| 20260904044557 | 64 | 349 | 0.0 | 0.0 | 0.00 | 0.00 | 0.00 | 88 | 1014.8 |
| 20260904043102 | 64 | 349 | 0.0 | 0.0 | 0.00 | 0.00 | 0.00 | 88 | 1014.8 |
| 20260904041557 | 64 | 349 | 0.0 | 1.0 | 0.00 | 0.00 | 0.00 | 88 | 1014.9 |
| 20260904040105 | 64 | 349 | 0.0 | 1.0 | 0.00 | 0.00 | 0.00 | 87 | 1015.0 |
| 20260904034553 | 65 | 360 | 0.0 | 2.0 | 0.00 | 0.00 | 0.00 | 87 | 1014.9 |
| 20260904033053 | 65 | 355 | 0.0 | 0.0 | 0.00 | 0.00 | 0.00 | 88 | 1014.9 |
| 20260904031557 | 64 | 355 | 0.0 | 0.0 | 0.00 | 0.00 | 0.00 | 87 | 1014.7 |
| 20260904030053 | 64 | 355 | 0.0 | 0.0 | 0.00 | 0.00 | 0.00 | 88 | 1014.7 |
| 20260904024551 | 64 | 355 | 0.0 | 0.0 | 0.00 | 0.00 | 0.00 | 89 | 1014.9 |
| 20260904023050 | 64 | 355 | 0.0 | 0.0 | 0.00 | 0.00 | 0.00 | 89 | 1015.0 |
| 20260904021549 | 64 | 355 | 0.0 | 0.0 | 0.00 | 0.00 | 0.00 | 89 | 1015.2 |
| 20260904020050 | 64 | 355 | 0.0 | 2.0 | 0.00 | 0.00 | 0.00 | 89 | 1015.1 |
| 20260904014554 | 65 | 355 | 1.0 | 2.0 | 0.00 | 0.00 | 0.00 | 88 | 1015.1 |
| 20260904013048 | 65 | 11 | 0.0 | 3.0 | 0.00 | 0.00 | 0.00 | 89 | 1015.0 |
| 20260904011548 | 65 | 5 | 1.0 | 4.0 | 0.00 | 0.00 | 0.00 | 89 | 1014.9 |
| 20260904010046 | 65 | 5 | 2.0 | 4.0 | 0.00 | 0.00 | 0.00 | 89 | 1014.7 |
| 20260904004545 | 65 | 349 | 1.0 | 5.0 | 0.00 | 0.00 | 0.00 | 89 | 1014.4 |
| 20260904003046 | 66 | 5 | 3.0 | 5.0 | 0.00 | 0.00 | 0.00 | 89 | 1014.0 |
| 20260904001550 | 66 | 19 | 2.0 | 5.0 | 0.00 | 0.00 | 0.00 | 89 | 1013.7 |
| 20260904000055 | 67 | 11 | 0.0 | 3.0 | 0.00 | 0.00 | 0.00 | 87 | 1014.0 |
| 20260903234544 | 67 | 5 | 2.0 | 5.0 | 0.00 | 0.00 | 0.00 | 87 | 1014.3 |
| 20260903233043 | 68 | 5 | 1.0 | 6.0 | 0.00 | 0.00 | 0.00 | 86 | 1014.4 |
| 20260903231544 | 68 | 12 | 0.0 | 3.0 | 0.00 | 0.00 | 0.00 | 85 | 1014.3 |
| 20260903230046 | 69 | 36 | 2.0 | 6.0 | 0.00 | 0.00 | 0.00 | 84 | 1014.0 |
| 20260903224540 | 69 | 5 | 1.0 | 5.0 | 0.00 | 0.00 | 0.00 | 85 | 1013.9 |
| 20260903223039 | 69 | 5 | 2.0 | 5.0 | 0.00 | 0.00 | 0.00 | 83 | 1013.9 |
| 20260903221539 | 70 | 15 | 2.0 | 8.0 | 0.00 | 0.00 | 0.00 | 82 | 1013.7 |
| 20260903220038 | 69 | 360 | 3.0 | 5.0 | 0.00 | 0.00 | 0.00 | 83 | 1013.8 |
| 20260903214544 | 71 | 360 | 3.0 | 7.0 | 0.00 | 0.00 | 0.00 | 81 | 1013.8 |
| 20260903213045 | 72 | 360 | 3.0 | 6.0 | 0.00 | 0.00 | 0.00 | 80 | 1013.7 |
| 20260903211536 | 72 | 10 | 2.0 | 5.0 | 0.00 | 0.00 | 0.00 | 78 | 1013.6 |
| 20260903210038 | 73 | 17 | 2.0 | 6.0 | 0.00 | 0.00 | 0.00 | 76 | 1013.5 |
| 20260903204534 | 74 | 20 | 3.0 | 9.0 | 0.00 | 0.00 | 0.00 | 75 | 1013.4 |
| 20260903203032 | 74 | 38 | 4.0 | 8.0 | 0.00 | 0.00 | 0.00 | 72 | 1013.5 |
| 20260903201537 | 74 | 19 | 2.0 | 8.0 | 0.00 | 0.00 | 0.00 | 72 | 1013.5 |
| 20260903200030 | 75 | 22 | 2.0 | 5.0 | 0.00 | 0.00 | 0.00 | 77 | 1013.5 |
| 20260903194527 | 74 | 5 | 2.0 | 5.0 | 0.00 | 0.00 | 0.00 | 78 | 1013.7 |
| 20260903193024 | 74 | 355 | 3.0 | 9.0 | 0.00 | 0.00 | 0.00 | 75 | 1013.8 |
| 20260903191523 | 74 | 355 | 3.0 | 8.0 | 0.00 | 0.00 | 0.00 | 76 | 1013.8 |